AUA551 LOWW-LSZH

Flight info

Callsign AUA551
Flight time 1h 7m
Altitude 30000
Route SOVIL DCT SITNI DCT BAGSI DCT MATIG DCT TRAUN DCT KONIN/N0349F120 L856 NEGRA
Aircraft A321/M-SDE3FGHIRWY/LB1

Departure

Time 2026-05-07 22:04
Airport Vienna International Airport (LOWW)

Arrival

Time 2026-05-07 23:11
Airport Zürich Airport (LSZH)
Time Latitude Longitude Altitude Speed Heading
2026-05-07 21:11 48.11654 16.56952 615 ft 0 kts 25°
2026-05-07 21:44 48.11653 16.56952 614 ft 2 kts 25°
2026-05-07 21:45 48.11631 16.56935 618 ft 4 kts 28°
2026-05-07 21:45 48.11608 16.56914 621 ft 4 kts 40°
2026-05-07 21:45 48.11593 16.56886 629 ft 4 kts 85°
2026-05-07 21:45 48.11594 16.56871 629 ft 1 kts 116°
2026-05-07 21:49 48.11591 16.56882 629 ft 3 kts 116°
2026-05-07 21:49 48.11577 16.56925 616 ft 7 kts 116°
2026-05-07 21:50 48.11550 16.57006 619 ft 11 kts 116°
2026-05-07 21:50 48.11511 16.57126 616 ft 15 kts 116°
2026-05-07 21:50 48.11461 16.57279 619 ft 18 kts 116°
2026-05-07 21:50 48.11411 16.57390 619 ft 10 kts 161°
2026-05-07 21:51 48.11339 16.57351 624 ft 12 kts 206°
2026-05-07 21:51 48.11265 16.57374 624 ft 14 kts 107°
2026-05-07 21:51 48.11224 16.57522 618 ft 16 kts 116°
2026-05-07 21:51 48.11173 16.57676 616 ft 14 kts 116°
2026-05-07 21:52 48.11097 16.57775 624 ft 16 kts 164°
2026-05-07 21:52 48.10982 16.57821 621 ft 18 kts 165°
2026-05-07 21:52 48.10856 16.57873 624 ft 20 kts 165°
2026-05-07 21:52 48.10719 16.57931 619 ft 21 kts 164°
2026-05-07 21:53 48.10570 16.57994 625 ft 23 kts 164°
2026-05-07 21:53 48.10410 16.58062 615 ft 25 kts 163°
2026-05-07 21:53 48.10239 16.58136 616 ft 27 kts 164°
2026-05-07 21:53 48.10056 16.58214 619 ft 28 kts 164°
2026-05-07 21:54 48.09907 16.58276 619 ft 17 kts 165°
2026-05-07 21:54 48.09786 16.58325 624 ft 19 kts 164°
2026-05-07 21:54 48.09655 16.58380 617 ft 20 kts 164°
2026-05-07 21:54 48.09514 16.58441 614 ft 22 kts 163°
2026-05-07 21:55 48.09415 16.58483 616 ft 23 kts 164°
2026-05-07 21:55 48.09257 16.58549 618 ft 24 kts 164°
2026-05-07 21:55 48.09089 16.58621 620 ft 24 kts 164°
2026-05-07 21:55 48.08991 16.58668 618 ft 13 kts 152°
2026-05-07 21:56 48.08930 16.58776 625 ft 15 kts 111°
2026-05-07 21:56 48.08925 16.58884 624 ft 0 kts 72°
2026-05-07 22:01 48.08928 16.58897 623 ft 3 kts 73°
2026-05-07 22:01 48.08940 16.58949 626 ft 7 kts 60°
2026-05-07 22:02 48.08985 16.59016 618 ft 11 kts 32°
2026-05-07 22:02 48.09048 16.59054 614 ft 10 kts 359°
2026-05-07 22:02 48.09092 16.59036 620 ft 0 kts 346°
2026-05-07 22:03 48.09113 16.59028 617 ft 21 kts 346°
2026-05-07 22:03 48.09471 16.58866 615 ft 84 kts 344°
2026-05-07 22:03 48.10203 16.58565 619 ft 133 kts 345°
2026-05-07 22:03 48.11227 16.58130 749 ft 166 kts 343°
2026-05-07 22:04 48.12368 16.57769 1416 ft 169 kts 345°
2026-05-07 22:04 48.13526 16.57486 2151 ft 169 kts 342°
2026-05-07 22:04 48.14594 16.56670 2439 ft 179 kts 321°
2026-05-07 22:04 48.15407 16.55174 2677 ft 198 kts 295°
2026-05-07 22:05 48.15622 16.53046 2884 ft 224 kts 262°
2026-05-07 22:05 48.14871 16.50888 3204 ft 250 kts 228°
2026-05-07 22:05 48.13441 16.49263 3738 ft 263 kts 217°
2026-05-07 22:05 48.11922 16.47712 4449 ft 265 kts 217°
2026-05-07 22:06 48.10439 16.46154 5171 ft 267 kts 218°
2026-05-07 22:06 48.09082 16.44283 5866 ft 267 kts 233°
2026-05-07 22:06 48.07952 16.42077 6563 ft 268 kts 236°
2026-05-07 22:06 48.06843 16.39815 7232 ft 270 kts 236°
2026-05-07 22:07 48.05729 16.37545 7864 ft 273 kts 235°
2026-05-07 22:07 48.04653 16.35361 8538 ft 274 kts 235°
2026-05-07 22:07 48.03586 16.32877 9153 ft 278 kts 248°
2026-05-07 22:07 48.03201 16.30045 9721 ft 280 kts 269°
2026-05-07 22:08 48.03252 16.27134 10289 ft 285 kts 272°
2026-05-07 22:08 48.03342 16.24109 10552 ft 300 kts 272°
2026-05-07 22:08 48.03425 16.20915 10776 ft 316 kts 271°
2026-05-07 22:08 48.03498 16.17551 10993 ft 332 kts 271°
2026-05-07 22:09 48.03567 16.14028 11196 ft 347 kts 271°
2026-05-07 22:09 48.03632 16.10396 11390 ft 361 kts 271°
2026-05-07 22:09 48.03696 16.06537 11609 ft 373 kts 271°
2026-05-07 22:09 48.03759 16.02667 11994 ft 379 kts 271°
2026-05-07 22:10 48.03821 15.98726 12557 ft 380 kts 271°
2026-05-07 22:10 48.03882 15.94784 13174 ft 380 kts 271°
2026-05-07 22:10 48.03943 15.90831 13691 ft 382 kts 271°
2026-05-07 22:10 48.04003 15.86842 14165 ft 385 kts 271°
2026-05-07 22:11 48.04065 15.82828 14594 ft 388 kts 271°
2026-05-07 22:11 48.04124 15.78779 15003 ft 391 kts 271°
2026-05-07 22:11 48.04181 15.74707 15464 ft 393 kts 271°
2026-05-07 22:11 48.04236 15.70614 15943 ft 394 kts 271°
2026-05-07 22:12 48.04287 15.66514 16390 ft 396 kts 271°
2026-05-07 22:12 48.04339 15.62418 16821 ft 398 kts 271°
2026-05-07 22:12 48.04392 15.58274 17248 ft 401 kts 270°
2026-05-07 22:12 48.04441 15.54097 17664 ft 403 kts 271°
2026-05-07 22:13 48.04489 15.49906 18081 ft 405 kts 270°
2026-05-07 22:13 48.04537 15.45667 18493 ft 408 kts 270°
2026-05-07 22:13 48.04586 15.41421 18850 ft 410 kts 270°
2026-05-07 22:13 48.04631 15.37170 19216 ft 411 kts 270°
2026-05-07 22:14 48.04690 15.32887 19578 ft 413 kts 271°
2026-05-07 22:14 48.04764 15.28587 19944 ft 414 kts 271°
2026-05-07 22:14 48.04833 15.24276 20287 ft 416 kts 271°
2026-05-07 22:14 48.04904 15.19944 20634 ft 418 kts 271°
2026-05-07 22:15 48.04972 15.15595 20972 ft 419 kts 271°
2026-05-07 22:15 48.05038 15.11233 21304 ft 421 kts 271°
2026-05-07 22:15 48.05102 15.06839 21629 ft 423 kts 270°
2026-05-07 22:15 48.05161 15.02448 21952 ft 425 kts 270°
2026-05-07 22:16 48.05220 14.98018 22260 ft 426 kts 270°
2026-05-07 22:16 48.05279 14.93642 22568 ft 428 kts 270°
2026-05-07 22:16 48.05336 14.89187 22868 ft 430 kts 270°
2026-05-07 22:16 48.05392 14.84722 23165 ft 431 kts 270°
2026-05-07 22:17 48.05444 14.80234 23469 ft 433 kts 270°
2026-05-07 22:17 48.05477 14.75769 23746 ft 434 kts 270°
2026-05-07 22:17 48.05507 14.71247 23986 ft 436 kts 270°
2026-05-07 22:17 48.05545 14.66717 24235 ft 437 kts 270°
2026-05-07 22:18 48.05579 14.62162 24484 ft 438 kts 270°
2026-05-07 22:18 48.05645 14.53014 24974 ft 440 kts 269°
2026-05-07 22:18 48.05672 14.48444 25280 ft 439 kts 269°
2026-05-07 22:19 48.05697 14.43883 25599 ft 438 kts 269°
2026-05-07 22:19 48.05721 14.39388 25916 ft 437 kts 269°
2026-05-07 22:19 48.05743 14.34861 26256 ft 436 kts 269°
2026-05-07 22:19 48.05764 14.30323 26577 ft 434 kts 269°
2026-05-07 22:20 48.05782 14.25824 26897 ft 433 kts 269°
2026-05-07 22:20 48.05799 14.21325 27221 ft 432 kts 269°
2026-05-07 22:20 48.05816 14.16833 27549 ft 431 kts 269°
2026-05-07 22:20 48.05832 14.12354 27863 ft 430 kts 269°
2026-05-07 22:21 48.05845 14.07891 28183 ft 429 kts 269°
2026-05-07 22:21 48.05855 14.03441 28505 ft 427 kts 269°
2026-05-07 22:21 48.05865 13.99009 28805 ft 426 kts 268°
2026-05-07 22:21 48.05870 13.94572 29116 ft 425 kts 268°
2026-05-07 22:22 48.05874 13.90153 29421 ft 424 kts 268°
2026-05-07 22:22 48.05881 13.85845 29718 ft 423 kts 268°
2026-05-07 22:22 48.05881 13.81387 30046 ft 422 kts 268°
2026-05-07 22:22 48.05879 13.76986 30149 ft 425 kts 268°
2026-05-07 22:23 48.05876 13.72602 30149 ft 430 kts 268°
2026-05-07 22:23 48.05869 13.63557 30125 ft 440 kts 268°
2026-05-07 22:24 48.05816 13.54386 30114 ft 440 kts 265°
2026-05-07 22:24 48.05106 13.45328 30107 ft 439 kts 261°
2026-05-07 22:25 48.04338 13.36255 30109 ft 439 kts 261°
2026-05-07 22:25 48.03565 13.27213 30108 ft 439 kts 261°
2026-05-07 22:26 48.02792 13.18232 30112 ft 439 kts 261°
2026-05-07 22:26 48.02002 13.09186 30105 ft 439 kts 261°
2026-05-07 22:27 48.01207 13.00148 30107 ft 439 kts 261°
2026-05-07 22:27 48.00405 12.91155 30113 ft 439 kts 261°
2026-05-07 22:28 47.99593 12.82103 30113 ft 438 kts 261°
2026-05-07 22:28 47.98775 12.73071 30108 ft 439 kts 260°
2026-05-07 22:29 47.97950 12.64042 30106 ft 439 kts 260°
2026-05-07 22:29 47.97128 12.55090 30102 ft 439 kts 260°
2026-05-07 22:30 47.96292 12.46065 30103 ft 438 kts 260°
2026-05-07 22:30 47.95447 12.37042 30103 ft 438 kts 260°
2026-05-07 22:31 47.94596 12.28032 30105 ft 438 kts 260°
2026-05-07 22:31 47.93741 12.19038 30105 ft 438 kts 260°
2026-05-07 22:32 47.92881 12.10104 30105 ft 438 kts 260°
2026-05-07 22:32 47.92018 12.01163 30101 ft 438 kts 260°
2026-05-07 22:33 47.91175 11.92532 30103 ft 437 kts 260°
2026-05-07 22:33 47.90293 11.83563 30109 ft 437 kts 259°
2026-05-07 22:34 47.89405 11.74586 30107 ft 437 kts 259°
2026-05-07 22:34 47.88508 11.65625 30108 ft 437 kts 259°
2026-05-07 22:35 47.87610 11.56729 30106 ft 437 kts 259°
2026-05-07 22:35 47.86697 11.47766 30103 ft 437 kts 259°
2026-05-07 22:36 47.85780 11.38805 30101 ft 438 kts 259°
2026-05-07 22:36 47.84857 11.29840 30101 ft 437 kts 259°
2026-05-07 22:37 47.83932 11.20946 30103 ft 437 kts 259°
2026-05-07 22:37 47.83004 11.12091 30098 ft 422 kts 259°
2026-05-07 22:37 47.82561 11.07855 29925 ft 410 kts 259°
2026-05-07 22:38 47.82162 11.04109 29634 ft 409 kts 258°
2026-05-07 22:38 47.81715 10.99940 29348 ft 408 kts 258°
2026-05-07 22:38 47.81269 10.95774 29069 ft 407 kts 258°
2026-05-07 22:38 47.80821 10.91610 28785 ft 405 kts 258°
2026-05-07 22:39 47.80373 10.87475 28504 ft 404 kts 258°
2026-05-07 22:39 47.79924 10.83346 28231 ft 403 kts 258°
2026-05-07 22:39 47.79484 10.79288 27964 ft 402 kts 258°
2026-05-07 22:39 47.79038 10.75194 27701 ft 401 kts 258°
2026-05-07 22:40 47.78590 10.71106 27429 ft 399 kts 258°
2026-05-07 22:40 47.78144 10.67044 27164 ft 398 kts 258°
2026-05-07 22:40 47.77695 10.62972 26898 ft 397 kts 258°
2026-05-07 22:40 47.77248 10.58920 26639 ft 396 kts 258°
2026-05-07 22:41 47.76799 10.54874 26375 ft 396 kts 258°
2026-05-07 22:41 47.76402 10.51300 26150 ft 395 kts 258°
2026-05-07 22:41 47.75952 10.47284 25911 ft 394 kts 258°
2026-05-07 22:41 47.75506 10.43312 25542 ft 392 kts 258°
2026-05-07 22:42 47.75054 10.39290 25080 ft 388 kts 258°
2026-05-07 22:42 47.74648 10.35417 24587 ft 387 kts 261°
2026-05-07 22:42 47.74470 10.31432 24067 ft 387 kts 265°
2026-05-07 22:42 47.74384 10.27433 23536 ft 386 kts 265°
2026-05-07 22:43 47.74303 10.23467 22964 ft 383 kts 265°
2026-05-07 22:43 47.74216 10.19522 22432 ft 381 kts 265°
2026-05-07 22:43 47.74127 10.15613 21932 ft 377 kts 265°
2026-05-07 22:43 47.74037 10.11721 21455 ft 374 kts 266°
2026-05-07 22:44 47.73951 10.07878 20988 ft 370 kts 265°
2026-05-07 22:44 47.73859 10.04081 20525 ft 367 kts 265°
2026-05-07 22:44 47.73764 10.00269 20156 ft 372 kts 265°
2026-05-07 22:44 47.73682 9.97010 20063 ft 372 kts 266°
2026-05-07 22:45 47.73616 9.94459 20036 ft 372 kts 265°
2026-05-07 22:45 47.73488 9.89350 19121 ft 377 kts 266°
2026-05-07 22:45 47.73389 9.85425 18343 ft 381 kts 266°
2026-05-07 22:45 47.73287 9.81502 17780 ft 376 kts 266°
2026-05-07 22:46 47.73220 9.78900 17477 ft 371 kts 266°
2026-05-07 22:46 47.73123 9.75106 17046 ft 364 kts 266°
2026-05-07 22:46 47.73025 9.71393 16626 ft 357 kts 266°
2026-05-07 22:46 47.72929 9.67790 16226 ft 350 kts 265°
2026-05-07 22:47 47.72827 9.64152 15827 ft 346 kts 265°
2026-05-07 22:47 47.72728 9.60648 15439 ft 342 kts 265°
2026-05-07 22:47 47.72630 9.57135 15037 ft 340 kts 265°
2026-05-07 22:47 47.72532 9.53686 14615 ft 338 kts 265°
2026-05-07 22:48 47.72433 9.50202 14181 ft 337 kts 265°
2026-05-07 22:48 47.72327 9.46738 13741 ft 335 kts 264°
2026-05-07 22:48 47.71945 9.43343 13267 ft 331 kts 251°
2026-05-07 22:48 47.70954 9.40312 12861 ft 326 kts 235°
2026-05-07 22:49 47.69563 9.37677 12474 ft 322 kts 230°
2026-05-07 22:49 47.68129 9.35142 12035 ft 320 kts 230°
2026-05-07 22:49 47.66705 9.32603 11592 ft 318 kts 231°
2026-05-07 22:49 47.65303 9.30085 11171 ft 316 kts 231°
2026-05-07 22:50 47.63924 9.27599 10931 ft 305 kts 231°
2026-05-07 22:50 47.62607 9.25219 10769 ft 293 kts 231°
2026-05-07 22:50 47.61360 9.22959 10633 ft 281 kts 231°
2026-05-07 22:50 47.60151 9.20761 10442 ft 270 kts 232°
2026-05-07 22:51 47.59211 9.18396 10088 ft 267 kts 250°
2026-05-07 22:51 47.58781 9.15724 9649 ft 266 kts 259°
2026-05-07 22:51 47.58476 9.13049 9389 ft 259 kts 259°
2026-05-07 22:51 47.58180 9.10474 9235 ft 248 kts 259°
2026-05-07 22:52 47.57886 9.07990 9029 ft 241 kts 258°
2026-05-07 22:52 47.57594 9.05562 8702 ft 238 kts 258°
2026-05-07 22:52 47.57422 9.03153 8476 ft 240 kts 270°
2026-05-07 22:52 47.57590 9.00690 8459 ft 241 kts 275°
2026-05-07 22:53 47.57813 8.98229 8523 ft 241 kts 275°
2026-05-07 22:53 47.58029 8.95799 8476 ft 240 kts 275°
2026-05-07 22:53 47.58238 8.93349 8517 ft 240 kts 274°
2026-05-07 22:53 47.58444 8.90904 8478 ft 239 kts 274°
2026-05-07 22:54 47.58651 8.88451 8509 ft 240 kts 274°
2026-05-07 22:54 47.58856 8.86002 8482 ft 239 kts 274°
2026-05-07 22:54 47.59033 8.83560 8509 ft 239 kts 270°
2026-05-07 22:54 47.58815 8.81155 8413 ft 236 kts 249°
2026-05-07 22:55 47.58008 8.79054 8410 ft 236 kts 234°
2026-05-07 22:55 47.57009 8.77109 8417 ft 236 kts 233°
2026-05-07 22:55 47.56012 8.75183 8422 ft 236 kts 233°
2026-05-07 22:55 47.55026 8.73246 8405 ft 236 kts 234°
2026-05-07 22:56 47.54049 8.71307 8427 ft 236 kts 234°
2026-05-07 22:56 47.53142 8.69493 8408 ft 236 kts 234°
2026-05-07 22:56 47.52165 8.67527 8428 ft 237 kts 234°
2026-05-07 22:56 47.51202 8.65589 8399 ft 236 kts 234°
2026-05-07 22:57 47.50230 8.63632 8425 ft 236 kts 234°
2026-05-07 22:57 47.49268 8.61701 8408 ft 236 kts 234°
2026-05-07 22:57 47.48290 8.59740 8416 ft 236 kts 234°
2026-05-07 22:57 47.47313 8.57780 8412 ft 236 kts 234°
2026-05-07 22:58 47.46336 8.55823 8420 ft 236 kts 234°
2026-05-07 22:58 47.45362 8.53869 8395 ft 236 kts 235°
2026-05-07 22:58 47.44336 8.51990 8219 ft 235 kts 222°
2026-05-07 22:58 47.42899 8.50946 8017 ft 232 kts 193°
2026-05-07 22:59 47.41272 8.51122 7964 ft 240 kts 165°
2026-05-07 22:59 47.39898 8.52470 7963 ft 243 kts 135°
2026-05-07 22:59 47.39106 8.54674 7980 ft 252 kts 105°
2026-05-07 22:59 47.39086 8.57273 7988 ft 258 kts 76°
2026-05-07 23:00 47.39871 8.59622 7991 ft 258 kts 46°
2026-05-07 23:00 47.41200 8.61382 8010 ft 256 kts 34°
2026-05-07 23:00 47.42621 8.62957 8008 ft 256 kts 33°
2026-05-07 23:00 47.44051 8.64517 8010 ft 256 kts 34°
2026-05-07 23:01 47.45276 8.66418 8042 ft 259 kts 57°
2026-05-07 23:01 47.45838 8.68947 8084 ft 259 kts 81°
2026-05-07 23:01 47.46111 8.71578 8059 ft 259 kts 83°
2026-05-07 23:01 47.46384 8.74205 8022 ft 259 kts 82°
2026-05-07 23:02 47.46665 8.76827 8007 ft 258 kts 82°
2026-05-07 23:02 47.46945 8.79409 7998 ft 259 kts 82°
2026-05-07 23:02 47.47233 8.82055 7999 ft 260 kts 82°
2026-05-07 23:02 47.47519 8.84663 7999 ft 260 kts 82°
2026-05-07 23:03 47.47808 8.87298 7999 ft 259 kts 82°
2026-05-07 23:03 47.48097 8.89918 7997 ft 259 kts 82°
2026-05-07 23:03 47.48387 8.92553 8005 ft 260 kts 82°
2026-05-07 23:03 47.48656 8.95191 8003 ft 259 kts 85°
2026-05-07 23:04 47.48731 8.97833 7978 ft 256 kts 103°
2026-05-07 23:04 47.47990 9.00106 7742 ft 240 kts 137°
2026-05-07 23:04 47.46615 9.01272 7287 ft 225 kts 175°
2026-05-07 23:04 47.45149 9.00925 6984 ft 211 kts 213°
2026-05-07 23:05 47.44221 8.99335 6838 ft 206 kts 244°
2026-05-07 23:05 47.43706 8.97399 6653 ft 205 kts 253°
2026-05-07 23:05 47.43421 8.95344 6377 ft 204 kts 261°
2026-05-07 23:05 47.43326 8.93240 6044 ft 207 kts 267°
2026-05-07 23:06 47.43351 8.91127 5800 ft 205 kts 270°
2026-05-07 23:06 47.43442 8.89019 5657 ft 205 kts 272°
2026-05-07 23:06 47.43549 8.86917 5594 ft 205 kts 273°
2026-05-07 23:06 47.43685 8.84912 5480 ft 195 kts 274°
2026-05-07 23:07 47.43820 8.82984 5313 ft 182 kts 274°
2026-05-07 23:07 47.43946 8.81206 5148 ft 172 kts 274°
2026-05-07 23:07 47.44067 8.79512 4903 ft 159 kts 274°
2026-05-07 23:07 47.44177 8.77951 4656 ft 150 kts 274°
2026-05-07 23:08 47.44286 8.76417 4441 ft 150 kts 274°
2026-05-07 23:08 47.44395 8.74877 4221 ft 151 kts 274°
2026-05-07 23:08 47.44504 8.73348 3995 ft 145 kts 274°
2026-05-07 23:08 47.44608 8.71886 3777 ft 142 kts 274°
2026-05-07 23:09 47.44711 8.70431 3579 ft 142 kts 274°
2026-05-07 23:09 47.44814 8.68976 3363 ft 143 kts 274°
2026-05-07 23:09 47.44918 8.67513 3150 ft 144 kts 274°
2026-05-07 23:09 47.45023 8.66036 2939 ft 145 kts 274°
2026-05-07 23:10 47.45129 8.64538 2687 ft 148 kts 275°
2026-05-07 23:10 47.45237 8.63017 2409 ft 150 kts 275°
2026-05-07 23:10 47.45346 8.61480 2148 ft 150 kts 276°
2026-05-07 23:10 47.45454 8.59952 1893 ft 149 kts 277°
2026-05-07 23:11 47.45565 8.58430 1664 ft 148 kts 277°
2026-05-07 23:11 47.45668 8.56924 1453 ft 148 kts 277°
2026-05-07 23:11 47.45769 8.55664 1403 ft 126 kts 278°
2026-05-07 23:11 47.45827 8.54787 1403 ft 37 kts 273°
2026-05-07 23:12 47.45841 8.54558 1405 ft 5 kts 275°
2026-05-07 23:12 47.45836 8.54501 1404 ft 7 kts 228°
2026-05-07 23:12 47.45801 8.54427 1405 ft 11 kts 243°
2026-05-07 23:12 47.45762 8.54307 1404 ft 15 kts 245°
2026-05-07 23:13 47.45683 8.54213 1403 ft 16 kts 174°
2026-05-07 23:13 47.45601 8.54325 1400 ft 18 kts 109°
2026-05-07 23:13 47.45561 8.54513 1398 ft 21 kts 108°
2026-05-07 23:13 47.45512 8.54727 1408 ft 23 kts 108°
2026-05-07 23:14 47.45457 8.54969 1408 ft 26 kts 109°
2026-05-07 23:14 47.45397 8.55221 1411 ft 18 kts 109°
2026-05-07 23:14 47.45340 8.55391 1403 ft 19 kts 118°
2026-05-07 23:14 47.45288 8.55532 1410 ft 13 kts 118°
2026-05-07 23:15 47.45273 8.55609 1409 ft 6 kts 96°
2026-05-07 23:15 47.45283 8.55679 1406 ft 9 kts 46°
2026-05-07 23:15 47.45341 8.55700 1402 ft 7 kts
2026-05-07 23:15 47.45351 8.55701 1405 ft 0 kts